Vertical_Velocity
-2 1 0 -2 -1 2 1 -1 -0 -1 -0 1 1 1 1 0 0 0 -0 0 0 -2
-1 1 -1 -3 1 3 -0 -1 -1 -0 2 1 1 0 -0 -1 -1 -1 -0 0 -1 -1
1 0 -3 1 4 -0 -2 -2 -1 -0 -0 -0 -0 -0 -1 -2 -1 -2 0 -1 -2 1
1 -2 -1 3 1 -0 -0 -0 0 0 -0 0 0 -0 -2 -1 -1 -0 1 3 -0 2
-3 -1 2 1 1 -1 0 1 0 0 -0 1 2 2 1 2 3 1 1 3 -0 -3
1 1 1 1 -1 -0 0 -0 -1 -1 -0 1 0 -0 -1 -2 -1 -1 -2 -1 1 -1
1 1 1 0 0 -0 -2 -2 -0 0 0 -1 -1 -2 -0 -2 -2 -1 -1 1 2 3
1 1 -0 -0 -0 -1 -1 -1 -2 -3 -2 -1 1 2 2 2 -1 0 -1 0 1 3
0 -0 -0 -1 -2 -1 -1 -0 -1 -1 -2 -1 1 2 2 4 -3 -2 -1 -2 -1 1
0 -1 -2 -1 -0 -0 0 -0 -1 -2 -2 -3 -1 1 -1 -1 -2 -0 -1 -1 -2 -2
-0 -0 0 0 -1 -1 -1 -2 -3 -2 0 -1 -4 -3 -3 0 -2 -1 1 1 1 -0
-0 -0 -0 -1 -1 -1 -4 -1 -3 -2 -4 -2 -3 -3 -1 -0 -2 -2 -2 -2 -4 -2
-0 -1 -0 -2 -3 -0 -1 -4 -2 -3 -3 -2 -4 -5 -1 1 1 -1 -1 -1 -4 -1
-2 -2 -2 -2 -1 -3 -2 -0 -0 -2 -4 -5 -3 -3 -3 1 0 1 0 -1 -1 -1
Height
1518 1519 1519 1519 1519 1519 1518 1518 1517 1516 1515 1514 1514 1513 1512 1511 1510 1509 1508 1506 1505 1504
1516 1516 1516 1517 1517 1516 1516 1515 1514 1513 1512 1511 1511 1509 1508 1507 1506 1505 1503 1502 1500 1498
1513 1514 1514 1515 1514 1513 1513 1512 1511 1510 1509 1508 1507 1506 1504 1503 1501 1500 1498 1496 1494 1492
1511 1511 1512 1512 1511 1510 1510 1510 1509 1508 1507 1505 1504 1502 1500 1498 1496 1494 1492 1490 1488 1485
1509 1510 1510 1509 1508 1508 1508 1507 1506 1505 1504 1502 1500 1498 1497 1495 1493 1491 1488 1486 1483 1480
1507 1507 1507 1507 1506 1506 1505 1505 1503 1502 1501 1499 1497 1494 1493 1490 1488 1486 1483 1480 1477 1474
1505 1505 1505 1505 1505 1504 1503 1502 1501 1499 1497 1495 1492 1489 1487 1484 1481 1479 1476 1473 1470 1468
1504 1504 1504 1504 1503 1502 1501 1500 1498 1496 1494 1491 1488 1485 1482 1478 1475 1472 1468 1465 1463 1459
1502 1502 1502 1502 1501 1500 1499 1497 1494 1492 1489 1486 1482 1479 1476 1471 1467 1464 1461 1457 1454 1451
1501 1501 1500 1500 1499 1498 1495 1493 1490 1487 1484 1480 1477 1473 1469 1465 1460 1455 1452 1448 1444 1441
1499 1499 1499 1497 1496 1493 1491 1488 1485 1482 1478 1474 1471 1467 1463 1459 1453 1449 1445 1442 1438 1434
1497 1497 1496 1494 1491 1489 1486 1483 1479 1476 1472 1467 1463 1460 1457 1453 1447 1442 1438 1434 1431 1427
1495 1494 1492 1490 1487 1484 1480 1477 1473 1468 1465 1461 1457 1454 1450 1446 1440 1434 1430 1426 1422 1419
1491 1490 1487 1485 1482 1478 1474 1469 1465 1461 1458 1455 1451 1446 1443 1440 1434 1428 1422 1417 1412 1409